Time,TemperatureF,DewpointF,PressureIn,WindDirection,WindDirectionDegrees,WindSpeedMPH,WindSpeedGustMPH,Humidity,HourlyPrecipIn,Conditions,Clouds,dailyrainin,SoftwareType,DateUTC
2013-03-04 00:01:00,51.0,33.0,29.78,SE,143,3.0,11.0,50,0.00,,,0.00,,2013-03-04 06:01:00,
2013-03-04 00:11:00,51.0,33.0,29.78,SE,143,3.0,11.0,50,0.00,,,0.00,,2013-03-04 06:11:00,
2013-03-04 00:21:00,51.0,34.0,29.77,East,100,2.0,8.0,51,0.00,,,0.00,,2013-03-04 06:21:00,
2013-03-04 00:32:00,50.0,33.0,29.76,SE,146,3.0,9.0,52,0.00,,,0.00,,2013-03-04 06:32:00,
2013-03-04 00:42:00,50.0,33.0,29.76,SE,146,3.0,9.0,52,0.00,,,0.00,,2013-03-04 06:42:00,
2013-03-04 00:51:00,50.0,33.0,29.75,ESE,111,3.0,10.0,52,0.00,,,0.00,,2013-03-04 06:51:00,
2013-03-04 01:01:00,50.0,34.0,29.73,NE,34,3.0,9.0,53,0.00,,,0.00,,2013-03-04 07:01:00,
2013-03-04 01:11:00,50.0,34.0,29.73,NE,34,3.0,9.0,53,0.00,,,0.00,,2013-03-04 07:11:00,
2013-03-04 01:21:00,50.0,34.0,29.72,South,176,2.0,12.0,53,0.00,,,0.00,,2013-03-04 07:21:00,
2013-03-04 01:32:00,50.0,34.0,29.72,SE,146,3.0,9.0,54,0.00,,,0.00,,2013-03-04 07:32:00,
2013-03-04 01:41:00,50.0,34.0,29.72,SE,146,3.0,9.0,54,0.00,,,0.00,,2013-03-04 07:41:00,
2013-03-04 01:51:00,50.0,34.0,29.72,SE,132,2.0,11.0,55,0.00,,,0.00,,2013-03-04 07:51:00,
2013-03-04 02:02:00,50.0,34.0,29.71,ESE,107,2.0,10.0,55,0.00,,,0.00,,2013-03-04 08:02:00,
2013-03-04 02:11:00,50.0,34.0,29.71,ESE,107,2.0,10.0,55,0.00,,,0.00,,2013-03-04 08:11:00,
2013-03-04 02:21:00,50.0,35.0,29.70,SE,145,3.0,11.0,56,0.00,,,0.00,,2013-03-04 08:21:00,
2013-03-04 02:32:00,50.0,35.0,29.70,SE,130,2.0,7.0,57,0.00,,,0.00,,2013-03-04 08:32:00,
2013-03-04 02:42:00,50.0,35.0,29.70,SE,130,2.0,7.0,57,0.00,,,0.00,,2013-03-04 08:42:00,
2013-03-04 02:52:00,50.0,35.0,29.70,SE,130,2.0,7.0,57,0.00,,,0.00,,2013-03-04 08:52:00,
2013-03-04 03:01:00,49.0,35.0,29.70,SE,125,0.0,5.0,59,0.00,,,0.00,,2013-03-04 09:01:00,
2013-03-04 03:11:00,49.0,35.0,29.70,SE,125,0.0,5.0,59,0.00,,,0.00,,2013-03-04 09:11:00,
2013-03-04 03:21:00,49.0,36.0,29.69,SE,136,2.0,8.0,60,0.00,,,0.00,,2013-03-04 09:21:00,
2013-03-04 03:32:00,49.0,36.0,29.68,SE,144,1.0,7.0,61,0.00,,,0.00,,2013-03-04 09:32:00,
2013-03-04 03:42:00,49.0,36.0,29.68,SE,144,1.0,7.0,61,0.00,,,0.00,,2013-03-04 09:42:00,
2013-03-04 03:52:00,49.0,37.0,29.67,SE,127,1.0,6.0,62,0.00,,,0.00,,2013-03-04 09:52:00,
2013-03-04 04:01:00,48.0,36.0,29.67,South,188,2.0,5.0,63,0.00,,,0.00,,2013-03-04 10:01:00,
2013-03-04 04:11:00,48.0,36.0,29.67,South,188,2.0,5.0,63,0.00,,,0.00,,2013-03-04 10:11:00,
2013-03-04 04:22:00,48.0,36.0,29.67,SSE,151,1.0,5.0,64,0.00,,,0.00,,2013-03-04 10:22:00,
2013-03-04 04:32:00,49.0,38.0,29.67,SE,129,0.0,5.0,65,0.00,,,0.00,,2013-03-04 10:32:00,
2013-03-04 04:42:00,49.0,38.0,29.67,SE,129,0.0,5.0,65,0.00,,,0.00,,2013-03-04 10:42:00,
2013-03-04 04:52:00,49.0,38.0,29.67,SSE,155,1.0,5.0,66,0.00,,,0.00,,2013-03-04 10:52:00,
2013-03-04 05:01:00,49.0,39.0,29.66,SE,146,1.0,5.0,67,0.00,,,0.00,,2013-03-04 11:01:00,
2013-03-04 05:11:00,49.0,39.0,29.66,SE,146,1.0,5.0,67,0.00,,,0.00,,2013-03-04 11:11:00,
2013-03-04 05:21:00,49.0,39.0,29.66,SSE,166,0.0,5.0,67,0.00,,,0.00,,2013-03-04 11:21:00,
2013-03-04 05:32:00,50.0,39.0,29.66,SE,137,2.0,7.0,67,0.00,,,0.00,,2013-03-04 11:32:00,
2013-03-04 05:42:00,50.0,39.0,29.66,SE,137,2.0,7.0,67,0.00,,,0.00,,2013-03-04 11:42:00,
2013-03-04 05:52:00,51.0,40.0,29.67,SE,134,1.0,5.0,67,0.00,,,0.00,,2013-03-04 11:52:00,
2013-03-04 06:01:00,51.0,40.0,29.66,East,83,1.0,5.0,67,0.00,,,0.00,,2013-03-04 12:01:00,
2013-03-04 06:11:00,51.0,40.0,29.66,East,83,1.0,5.0,67,0.00,,,0.00,,2013-03-04 12:11:00,
2013-03-04 06:22:00,51.0,40.0,29.67,SSE,152,1.0,5.0,67,0.00,,,0.00,,2013-03-04 12:22:00,
2013-03-04 06:32:00,51.0,40.0,29.65,ENE,70,2.0,7.0,67,0.00,,,0.00,,2013-03-04 12:32:00,
2013-03-04 06:42:00,51.0,40.0,29.65,ENE,70,2.0,7.0,67,0.00,,,0.00,,2013-03-04 12:42:00,
2013-03-04 06:52:00,51.0,41.0,29.65,SE,143,2.0,7.0,68,0.00,,,0.00,,2013-03-04 12:52:00,
2013-03-04 07:02:00,51.0,41.0,29.65,ESE,109,3.0,9.0,68,0.00,,,0.00,,2013-03-04 13:02:00,
2013-03-04 07:11:00,51.0,41.0,29.65,ESE,109,3.0,9.0,68,0.00,,,0.00,,2013-03-04 13:11:00,
2013-03-04 07:21:00,51.0,41.0,29.65,East,99,2.0,8.0,68,0.00,,,0.00,,2013-03-04 13:21:00,
2013-03-04 07:32:00,51.0,41.0,29.65,South,176,1.0,9.0,68,0.00,,,0.00,,2013-03-04 13:32:00,
2013-03-04 07:42:00,51.0,41.0,29.65,South,176,1.0,9.0,68,0.00,,,0.00,,2013-03-04 13:42:00,
2013-03-04 07:51:00,50.0,40.0,29.67,ESE,121,0.0,4.0,69,0.00,,,0.00,,2013-03-04 13:51:00,
2013-03-04 08:01:00,50.0,40.0,29.67,East,92,0.0,5.0,69,0.00,,,0.00,,2013-03-04 14:01:00,
2013-03-04 08:11:00,50.0,40.0,29.67,East,92,0.0,5.0,69,0.00,,,0.00,,2013-03-04 14:11:00,
2013-03-04 08:22:00,50.0,40.0,29.68,SSE,158,1.0,4.0,69,0.00,,,0.00,,2013-03-04 14:22:00,
2013-03-04 08:32:00,50.0,40.0,29.67,SE,142,3.0,6.0,68,0.00,,,0.00,,2013-03-04 14:32:00,
2013-03-04 08:42:00,50.0,40.0,29.67,SE,142,3.0,6.0,68,0.00,,,0.00,,2013-03-04 14:42:00,
2013-03-04 08:52:00,51.0,40.0,29.67,East,98,1.0,7.0,67,0.00,,,0.00,,2013-03-04 14:52:00,
2013-03-04 09:01:00,51.0,40.0,29.67,ESE,115,2.0,6.0,66,0.00,,,0.00,,2013-03-04 15:01:00,
2013-03-04 09:11:00,51.0,40.0,29.67,ESE,115,2.0,6.0,66,0.00,,,0.00,,2013-03-04 15:11:00,
2013-03-04 09:22:00,53.0,41.0,29.68,ESE,115,2.0,7.0,64,0.00,,,0.00,,2013-03-04 15:22:00,
2013-03-04 09:32:00,54.0,42.0,29.67,ESE,106,2.0,6.0,63,0.00,,,0.00,,2013-03-04 15:32:00,
2013-03-04 09:42:00,54.0,42.0,29.67,ESE,106,2.0,6.0,63,0.00,,,0.00,,2013-03-04 15:42:00,
2013-03-04 09:52:00,55.0,42.0,29.68,SSE,152,3.0,7.0,61,0.00,,,0.00,,2013-03-04 15:52:00,
2013-03-04 10:02:00,57.0,43.0,29.67,South,179,3.0,10.0,59,0.00,,,0.00,,2013-03-04 16:02:00,
2013-03-04 10:11:00,57.0,43.0,29.67,South,179,3.0,10.0,59,0.00,,,0.00,,2013-03-04 16:11:00,
2013-03-04 10:21:00,58.0,43.0,29.67,East,87,1.0,7.0,58,0.00,,,0.00,,2013-03-04 16:21:00,
2013-03-04 10:32:00,59.0,44.0,29.67,SSE,150,1.0,6.0,57,0.00,,,0.00,,2013-03-04 16:32:00,
2013-03-04 10:42:00,59.0,44.0,29.67,SSE,150,1.0,6.0,57,0.00,,,0.00,,2013-03-04 16:42:00,
2013-03-04 10:52:00,61.0,43.0,29.66,SE,132,4.0,10.0,51,0.00,,,0.00,,2013-03-04 16:52:00,
2013-03-04 11:02:00,63.0,43.0,29.66,South,176,5.0,10.0,48,0.00,,,0.00,,2013-03-04 17:02:00,
2013-03-04 11:11:00,63.0,43.0,29.66,South,176,5.0,10.0,48,0.00,,,0.00,,2013-03-04 17:11:00,
2013-03-04 11:22:00,64.0,43.0,29.66,South,187,4.0,10.0,46,0.00,,,0.00,,2013-03-04 17:22:00,
2013-03-04 11:32:00,65.0,43.0,29.66,South,191,4.0,9.0,44,0.00,,,0.00,,2013-03-04 17:32:00,
2013-03-04 11:42:00,65.0,43.0,29.66,South,191,4.0,9.0,44,0.00,,,0.00,,2013-03-04 17:42:00,
2013-03-04 11:52:00,65.0,41.0,29.66,South,180,3.0,11.0,41,0.00,,,0.00,,2013-03-04 17:52:00,
2013-03-04 12:01:00,66.0,42.0,29.66,SSE,149,3.0,9.0,41,0.00,,,0.00,,2013-03-04 18:01:00,
2013-03-04 12:11:00,66.0,42.0,29.66,SSE,149,3.0,9.0,41,0.00,,,0.00,,2013-03-04 18:11:00,
2013-03-04 12:21:00,67.0,42.0,29.65,East,87,0.0,5.0,40,0.00,,,0.00,,2013-03-04 18:21:00,
2013-03-04 12:32:00,68.0,42.0,29.65,SW,229,1.0,5.0,39,0.00,,,0.00,,2013-03-04 18:32:00,
2013-03-04 12:42:00,68.0,42.0,29.65,SW,229,1.0,5.0,39,0.00,,,0.00,,2013-03-04 18:42:00,
2013-03-04 12:52:00,69.0,42.0,29.65,SW,226,2.0,6.0,37,0.00,,,0.00,,2013-03-04 18:52:00,
2013-03-04 13:02:00,69.0,42.0,29.65,SSW,197,2.0,7.0,38,0.00,,,0.00,,2013-03-04 19:02:00,
2013-03-04 13:11:00,69.0,42.0,29.65,SSW,197,2.0,7.0,38,0.00,,,0.00,,2013-03-04 19:11:00,
2013-03-04 13:22:00,69.0,42.0,29.65,WSW,256,3.0,6.0,38,0.00,,,0.00,,2013-03-04 19:22:00,
2013-03-04 13:32:00,69.0,42.0,29.64,WNW,285,3.0,6.0,37,0.00,,,0.00,,2013-03-04 19:32:00,
2013-03-04 13:42:00,69.0,42.0,29.64,WNW,285,3.0,6.0,37,0.00,,,0.00,,2013-03-04 19:42:00,
2013-03-04 13:52:00,69.0,41.0,29.63,ESE,103,0.0,5.0,36,0.00,,,0.00,,2013-03-04 19:52:00,
2013-03-04 14:02:00,70.0,41.0,29.63,South,180,1.0,8.0,35,0.00,,,0.00,,2013-03-04 20:02:00,
2013-03-04 14:11:00,70.0,41.0,29.63,South,180,1.0,8.0,35,0.00,,,0.00,,2013-03-04 20:11:00,
2013-03-04 14:22:00,71.0,41.0,29.63,West,271,1.0,4.0,34,0.00,,,0.00,,2013-03-04 20:22:00,
2013-03-04 14:32:00,71.0,40.0,29.62,SE,130,0.0,5.0,33,0.00,,,0.00,,2013-03-04 20:32:00,
2013-03-04 14:42:00,71.0,40.0,29.62,SE,130,0.0,5.0,33,0.00,,,0.00,,2013-03-04 20:42:00,
2013-03-04 14:52:00,71.0,42.0,29.63,SW,231,2.0,6.0,35,0.00,,,0.00,,2013-03-04 20:52:00,
2013-03-04 15:02:00,71.0,42.0,29.63,SW,231,2.0,6.0,35,0.00,,,0.00,,2013-03-04 21:02:00,
2013-03-04 15:12:00,71.0,42.0,29.63,SW,231,2.0,6.0,35,0.00,,,0.00,,2013-03-04 21:12:00,
2013-03-04 15:22:00,71.0,42.0,29.64,SSE,147,2.0,6.0,35,0.00,,,0.00,,2013-03-04 21:22:00,
2013-03-04 15:32:00,71.0,41.0,29.64,West,271,2.0,7.0,34,0.00,,,0.00,,2013-03-04 21:32:00,
2013-03-04 15:42:00,71.0,41.0,29.64,West,271,2.0,7.0,34,0.00,,,0.00,,2013-03-04 21:42:00,
2013-03-04 15:52:00,71.0,42.0,29.64,South,184,1.0,7.0,35,0.00,,,0.00,,2013-03-04 21:52:00,
2013-03-04 16:02:00,71.0,41.0,29.65,SE,141,0.0,6.0,34,0.00,,,0.00,,2013-03-04 22:02:00,
2013-03-04 16:12:00,71.0,41.0,29.65,SE,141,0.0,6.0,34,0.00,,,0.00,,2013-03-04 22:12:00,
2013-03-04 16:22:00,71.0,42.0,29.65,SSE,156,0.0,3.0,35,0.00,,,0.00,,2013-03-04 22:22:00,
2013-03-04 16:32:00,71.0,41.0,29.65,NW,318,0.0,4.0,34,0.00,,,0.00,,2013-03-04 22:32:00,
2013-03-04 16:42:00,71.0,41.0,29.65,NW,318,0.0,4.0,34,0.00,,,0.00,,2013-03-04 22:42:00,
2013-03-04 16:52:00,72.0,41.0,29.65,SSW,205,0.0,2.0,33,0.00,,,0.00,,2013-03-04 22:52:00,
2013-03-04 17:02:00,71.0,40.0,29.65,WSW,249,0.0,2.0,33,0.00,,,0.00,,2013-03-04 23:02:00,
2013-03-04 17:11:00,71.0,40.0,29.65,WSW,249,0.0,2.0,33,0.00,,,0.00,,2013-03-04 23:11:00,
2013-03-04 17:22:00,71.0,40.0,29.65,NW,325,0.0,4.0,33,0.00,,,0.00,,2013-03-04 23:22:00,
2013-03-04 17:32:00,71.0,40.0,29.65,NW,325,0.0,4.0,33,0.00,,,0.00,,2013-03-04 23:32:00,
2013-03-04 17:42:00,71.0,40.0,29.65,NW,325,0.0,4.0,33,0.00,,,0.00,,2013-03-04 23:42:00,
2013-03-04 17:52:00,71.0,40.0,29.67,WNW,294,0.0,1.0,33,0.00,,,0.00,,2013-03-04 23:52:00,
2013-03-04 18:02:00,70.0,40.0,29.67,SW,218,0.0,0.0,34,0.00,,,0.00,,2013-03-05 00:02:00,
2013-03-04 18:11:00,70.0,40.0,29.67,SW,218,0.0,0.0,34,0.00,,,0.00,,2013-03-05 00:11:00,
2013-03-04 18:21:00,69.0,41.0,29.68,NW,320,0.0,0.0,36,0.00,,,0.00,,2013-03-05 00:21:00,
2013-03-04 18:32:00,67.0,41.0,29.70,WNW,300,0.0,3.0,38,0.00,,,0.00,,2013-03-05 00:32:00,
2013-03-04 18:42:00,67.0,41.0,29.70,WNW,300,0.0,3.0,38,0.00,,,0.00,,2013-03-05 00:42:00,
2013-03-04 18:51:00,67.0,41.0,29.70,NNE,26,0.0,4.0,39,0.00,,,0.00,,2013-03-05 00:51:00,
2013-03-04 19:01:00,66.0,41.0,29.70,NNE,27,1.0,3.0,40,0.00,,,0.00,,2013-03-05 01:01:00,
2013-03-04 19:12:00,66.0,41.0,29.70,NNE,27,1.0,3.0,40,0.00,,,0.00,,2013-03-05 01:12:00,
2013-03-04 19:22:00,65.0,41.0,29.71,North,356,0.0,3.0,41,0.00,,,0.00,,2013-03-05 01:22:00,
2013-03-04 19:32:00,61.0,42.0,29.73,NNW,345,5.0,12.0,49,0.00,,,0.00,,2013-03-05 01:32:00,
2013-03-04 19:41:00,61.0,42.0,29.73,NNW,345,5.0,12.0,49,0.00,,,0.00,,2013-03-05 01:41:00,
2013-03-04 19:51:00,57.0,41.0,29.76,North,6,4.0,9.0,54,0.00,,,0.00,,2013-03-05 01:51:00,
2013-03-04 20:01:00,56.0,41.0,29.78,NNW,329,2.0,13.0,56,0.00,,,0.00,,2013-03-05 02:01:00,
2013-03-04 20:11:00,56.0,41.0,29.78,NNW,329,2.0,13.0,56,0.00,,,0.00,,2013-03-05 02:11:00,
2013-03-04 20:22:00,55.0,40.0,29.80,NW,322,4.0,10.0,57,0.00,,,0.00,,2013-03-05 02:22:00,
2013-03-04 20:32:00,54.0,40.0,29.81,NW,315,3.0,18.0,58,0.00,,,0.00,,2013-03-05 02:32:00,
2013-03-04 20:42:00,54.0,40.0,29.81,NW,315,3.0,18.0,58,0.00,,,0.00,,2013-03-05 02:42:00,
2013-03-04 20:52:00,53.0,39.0,29.82,NW,314,6.0,15.0,59,0.00,,,0.00,,2013-03-05 02:52:00,
2013-03-04 21:02:00,52.0,38.0,29.84,NE,36,7.0,17.0,59,0.00,,,0.00,,2013-03-05 03:02:00,
2013-03-04 21:12:00,52.0,38.0,29.84,NE,36,7.0,17.0,59,0.00,,,0.00,,2013-03-05 03:12:00,
2013-03-04 21:22:00,51.0,38.0,29.85,NNW,331,3.0,21.0,60,0.00,,,0.00,,2013-03-05 03:22:00,
2013-03-04 21:32:00,50.0,38.0,29.87,North,356,8.0,17.0,62,0.00,,,0.00,,2013-03-05 03:32:00,
2013-03-04 21:42:00,50.0,38.0,29.87,North,356,8.0,17.0,62,0.00,,,0.00,,2013-03-05 03:42:00,
2013-03-04 21:52:00,49.0,37.0,29.88,North,9,6.0,18.0,63,0.00,,,0.00,,2013-03-05 03:52:00,
2013-03-04 22:02:00,48.0,36.0,29.89,North,1,7.0,20.0,64,0.00,,,0.00,,2013-03-05 04:02:00,
2013-03-04 22:12:00,48.0,36.0,29.89,North,1,7.0,20.0,64,0.00,,,0.00,,2013-03-05 04:12:00,
2013-03-04 22:22:00,48.0,37.0,29.90,NW,315,8.0,18.0,65,0.00,,,0.00,,2013-03-05 04:22:00,
2013-03-04 22:32:00,48.0,37.0,29.91,NNE,15,5.0,21.0,66,0.00,,,0.00,,2013-03-05 04:32:00,
2013-03-04 22:42:00,48.0,37.0,29.91,NNE,15,5.0,21.0,66,0.00,,,0.00,,2013-03-05 04:42:00,
2013-03-04 22:52:00,47.0,37.0,29.94,NNW,334,3.0,8.0,67,0.00,,,0.00,,2013-03-05 04:52:00,
2013-03-04 23:02:00,47.0,37.0,29.95,North,8,5.0,13.0,69,0.00,,,0.00,,2013-03-05 05:02:00,
2013-03-04 23:11:00,47.0,37.0,29.95,North,8,5.0,13.0,69,0.00,,,0.00,,2013-03-05 05:11:00,
2013-03-04 23:22:00,46.0,36.0,29.96,NW,307,5.0,13.0,69,0.00,,,0.00,,2013-03-05 05:22:00,
2013-03-04 23:32:00,45.0,35.0,29.98,NNE,27,4.0,16.0,69,0.00,,,0.00,,2013-03-05 05:32:00,
2013-03-04 23:42:00,45.0,35.0,29.98,NNE,27,4.0,16.0,69,0.00,,,0.00,,2013-03-05 05:42:00,
2013-03-04 23:52:00,45.0,35.0,29.99,NNW,347,3.0,21.0,69,0.00,,,0.00,,2013-03-05 05:52:00,